Location: Erlenbrunn
(49.1717°N, 7.6142°E)
Time: 18:22:01
(UTC+00:00)

FENGYUN 1C DEB - Visible Passes

Search period start: 22 June 2021 00:00
Search period end: 02 July 2021 00:00
Orbit: 792 x 906 km, 99.3° (Epoch: 21 June)

Date Brightness Start Highest point End Pass type
(mag) Time Alt. Az. Time Alt. Az. Time Alt. Az.
22 Jun ? 20:35:29 10° NNE 20:40:55 87° ESE 20:46:29 10° SSW visible
22 Jun ? 22:17:16 10° NNW 22:20:54 19° NW 22:24:35 10° W visible
23 Jun ? 20:23:16 10° NNE 20:28:41 71° ESE 20:34:14 10° S visible
23 Jun ? 22:04:44 10° N 22:08:49 23° WNW 22:13:00 10° WSW visible
24 Jun ? 21:52:14 10° N 21:56:44 27° WNW 22:01:18 10° WSW visible
25 Jun ? 21:39:49 10° N 21:44:37 33° WNW 21:49:31 10° WSW visible
26 Jun ? 21:27:25 10° N 21:32:28 40° WNW 21:37:39 10° SW visible
27 Jun ? 21:15:04 10° N 21:20:19 49° WNW 21:25:42 10° SW visible
27 Jun ? 22:58:46 10° NW 22:59:45 10° NW 23:00:45 10° WNW visible
28 Jun ? 21:02:43 10° N 21:08:07 61° WNW 21:13:40 10° SSW visible
28 Jun ? 22:45:23 10° NNW 22:47:45 13° NW 22:50:07 10° WNW visible
29 Jun ? 20:50:26 10° NNE 20:55:56 75° WNW 21:01:34 10° SSW visible
29 Jun ? 22:32:35 10° NNW 22:35:43 16° NW 22:38:54 10° W visible
30 Jun ? 20:38:09 10° NNE 20:43:42 88° ESE 20:49:23 10° SSW visible
30 Jun ? 22:19:56 10° NNW 22:23:39 19° NW 22:27:26 10° W visible
01 Jul ? 20:25:54 10° NNE 20:31:27 72° ESE 20:37:08 10° S visible
01 Jul ? 22:07:22 10° N 22:11:34 23° WNW 22:15:51 10° WSW visible
